Погода в Оленеке

Погода в Оленеке : погода сейчас, прогноз погоды и архив. Всё, что Вы хотите узнать о погоде в Оленеке!

Хотите узнать прогноз погоды в Оленеке? Тогда Вам сюда: Погода в Оленеке

Поиск расширенной информации на нашем сайте:

Другие новости

Новости СМИ2

Главная страница сайта

Новости сайта

03.07.2017

Напоминаем, что на нашем специализированном сайте Метеоцентр.Азия вы можете получить высокодетализированные автоматические прогнозы погоды по пунктам России, СНГ и мира в авиационном формате (включающие направление и скорость ветра, видимость, явления погоды, количество и форму облачности, нижнюю и верхнюю границу облачности).


Погода в Оленеке - сегодня

Время (UTC), дата Ветер
(°,м/с) 
Видим.   Явления Облачность Т
(°С)
Тd
(°С)
f(%) Тe
(°С)
Pmin
(гПа)
dP
(гПа)
Po
(мм)
O2
(г/м3)
Тmin Tmax R s Состояние
почвы
15 16.10.18 260 (З) н/о    н/о 
-5.2 -8.8 76 -7  1012.8  -0.7  739  304           
18 16.10.18 260 (З) н/о    н/о 
-4 -8.3 72 -6  1012.3  -0.4  738  303           
21 16.10.18 240 (ЮЗ) н/о    н/о 
-5.6 -9.5 74 -9  1012.6  0.2  739  305           
00 17.10.18 240 (ЮЗ) 20000 м    10/0 средняя, верхняя 
[Ac As|Ci sp]
-6.4 -9.2 80 -9  1012.8  0.1  739  306  -6.4        замёрзшая 
03 17.10.18 250 (З) 20000 м    8/4 1000 м верхняя 
[Sc|Ci sp]
-4.3 -7.7 77 -6  1012.8  0.2  739  303           
06 17.10.18 240 (ЮЗ) 20000 м    4/1 1500 м верхняя 
[Cu hum|Ci fib]
-1.9 -8.1 63 -4  1012.5  739  301           
09 17.10.18 220 (ЮЗ) 20000 м    10/0 средняя, верхняя 
[Ac trans|Ci sp]
-3.2 -8.7 66 -4  1012.7  0.1  739  302           
12 17.10.18 200 (Ю) н/о    н/о 
-3.7 -8.2 71 -5  1012  -0.7  738  302    -1.8       
15 17.10.18 200 (Ю) н/о    н/о 
-3.8 -8.5 70 -7  1011.2  -0.8  738  302           
18 17.10.18 210 (ЮЗ) н/о    н/о 
-4.3 -8.4 73 -8  1009.8  -1.5  737  302           
21 17.10.18 200 (Ю) н/о    н/о 
-4.5 -8.2 75 -7  1008.5  -1.3  736  302           
00 18.10.18 220 (ЮЗ) 20000 м    10/0 средняя, верхняя 
[Ac trans|Ci sp]
-4.5 -8 76 -8  1007.3  -1.1  735  302  -4.7        замёрзшая 
03 18.10.18 200 (Ю) 20000 м    10/3 600 м средняя 
[Sc|Ac und]
-3.6 -7.2 76 -6  1006.2  -1  734  300           
12 18.10.18 280 (З) н/о    н/о 
-2.8 -5.5 82 -2  1005.8  0.2  734  299    -2       
15 18.10.18 270 (З) н/о    н/о 
-3.6 -7.5 74 -3  1005.9  734  300           
18 18.10.18 280 (З) н/о    н/о 
-4.2 -8.1 74 -5  1006  734  301           
21 18.10.18 270 (З) н/о    н/о 
-4.2 -7.7 77 -6  1006.1  0.1  734  301           
09 19.10.18 340 (С) 20000 м  {ливн. осадки}  1/0 средняя 
[Ac As]
-8 -11.2 78 -10  1014  1.8  739  308           
12 19.10.18 220 (ЮЗ) н/о    н/о 
-9.7 -11.3 88 -10  1015.4  1.1  740  310    -5.1       
15 19.10.18 тихо ()   н/о    н/о 
-13.2 -13.9 94 -13  1016.5  0.7  741  315           
18 19.10.18 100 (В) н/о    н/о 
-13.6 -14.6 92 -14  1016.3  -0.2  741  315           
21 19.10.18 090 (В) н/о    н/о 
-11.6 -12.3 95 -15  1015.6  -0.4  740  313           
00 20.10.18 110 (В) н/о    н/о 
-10.7 -11.4 95 -14  1015.6  -0.4  740  312  -13.9         
03 20.10.18 090 (В) н/о    н/о 
-8.4 -8.6 98 -8  1013.8  -0.4  739  308           
06 20.10.18 080 (В) н/о    н/о 
-6.3 -6.3 100 -6  1013.2  739  305           
Время (UTC), дата Ветер
(°,м/с) 
Видим.   Явления Облачность Т
(°С)
Тd
(°С)
f(%) Тe
(°С)
Pmin
(гПа)
dP
(гПа)
Po
(мм)
O2
(г/м3)
Тmin Tmax R s Состояние
почвы

Для получения пояснительной информации подведите курсор к названию столбца.

ПОГОДА в Оленеке - архив

Всё, что Вы хотите узнать о погоде в Оленеке - удобно и подробно!

Выберите нужную дату (начиная с 1 января 2015* года) и нажмите кнопку "Найти".
Будут отображены архивные сводки погоды по пункту Оленек, начиная с указанной даты.


Отображать данные в формате CSV (для использования в таблицах Excel)


Внимание! Наш архив погоды предназначен исключительно для личного некоммерческого использования в познавательных целях. Если Вам необходимы официальные справки о состоянии погоды (для производственных, юридических, коммерческих и т.п. целей), обращайтесь в органы Росгидромета.

*Примечание: данная дата относится к архиву по метеостанциям СССР (Россия, СНГ, Балтия).
Архив по метеостанциям Зарубежной Европы и Азии (кроме Китая) хранится 10 дней, по другим регионам земного шара (Китай, Африка, Америка, Австралия, Океания) - 1 день.

Оленек - район местоположения метеостанции


Название, широта, долгота, высота метеостанции:
Оленек 68.5°ш. 112.4°д. 220 м над ур. моря [Российская Федерация]

Дополнительная информация

В oтличие oт бoльшинства пoгoдных сайтoв мы публикуем пoдрoбную метеoинфoрмацию в детальнoм прoфессиoнальнoм фoрмате.

Характеристики температуры и влажнoсти вoздуха измеряются на высoте 2 м в тени вдали oт зданий и деревьев.
Скoрoсть ветра измеряется на высoте 10 м (на урoвне рoста челoвека скoрoсть ветра ниже в 1.5-2 раза). Если метеoстанция нахoдится в гoрoде или в лесу, тo скoрoсть ветра занижена на 2-4 м/с пo сравнению с oткрытым местoм. Скoрoсть ветра над акватoриями крупных рек и oзёр, а также на вершинах хoлмoв на 2-5 м/с выше, чем в oбычных услoвиях.
Атмoсфернoе давление в разных тoчках местнoсти мoжет значительнo oтличаться oт давления на метеoстанции, в зависимoсти oт услoвий рельефа (при пoдъёме на 10 м давление пoнижается примернo на 1 мм рт.ст.).